Regional Weather Roundup
Issued by NWS

Home | Current Version | Previous Version | Text Only | Print | Product List | Glossary On
Versions: 1 2 3 4 5 6 7 8 9 10 11 12 13 14 15 16 17 18 19 20 21 22 23 24 25 26 27 28 29 30 31 32 33 34 35 36 37 38 39 40 41 42 43 44 45 46 47 48 49 50
000
ASCA44 KEWX 230620
RWRMX

LATIN AMERICA AND CARIBBEAN REGIONAL WEATHER ROUNDUP
NATIONAL WEATHER SERVICE AUSTIN/SAN ANTONIO TX
100 AM CDT WED APR 23 2014

NOTE: "FAIR" INDICATED FEW OR NO CLOUDS BELOW 12,000 FEET WITH NO
SIGNIFICANT WEATHER AND/OR OBSTRUCTIONS TO VISIBILITY.

BAJA CALIFORNIA

CITY           SKY/WX    TMP DP  RH WIND       PRES   REMARKS
LA PAZ           N/A    N/A N/A N/A MISG        N/A
TIJUANA        PTCLDY    57  46  67 W3        29.99F

NORTHWESTERN MEXICO

CITY           SKY/WX    TMP DP  RH WIND       PRES   REMARKS
CULIACAN       CLEAR     75  59  57 CALM      29.84F

NORTHEASTERN MEXICO

CITY           SKY/WX    TMP DP  RH WIND       PRES   REMARKS
MONTERREY      CLEAR     68  63  83 E5        29.93S

WESTERN MEXICO

CITY           SKY/WX    TMP DP  RH WIND       PRES   REMARKS
DEL BAJIO      PTCLDY    70  43  37 NE10      30.21R
GUADALAJARA    CLEAR     68  32  26 W10       30.11F
MAZATLAN       CLEAR     64  55  72 CALM      29.84S
P. VALLARTA    CLEAR     72  66  83 CALM      29.87S
ZACATECAS      PTCLDY    64  34  32 SE5       30.21R

CENTRAL MEXICO

CITY           SKY/WX    TMP DP  RH WIND       PRES   REMARKS
MEXICO CITY    CLEAR     57  46  67 W3        30.31F
MORELIA        PTCLDY    59  46  63 S3        30.18S
QUERETARO      HVY RAIN  59  55  88 W29G40    30.32R VSB 1
S. LUIS POTOSI PTCLDY    63  57  82 SE18      30.22R
TOLUCA         MOCLDY    52  43  71 E6        30.38F

SOUTHERN MEXICO

CITY           SKY/WX    TMP DP  RH WIND       PRES   REMARKS
ACAPULCO       PTCLDY    81  75  83 W5        29.86S

YUCATAN PENINSULA

CITY           SKY/WX    TMP DP  RH WIND       PRES   REMARKS
CANCUN         CLEAR     66  66 100 CALM      29.94S
COZUMEL        PTCLDY    64  63  94 CALM      29.94S
MERIDA         PTCLDY    73  64  73 NE9       29.92F
TAPACHULA      CLEAR     79  72  78 CALM      29.89S

CENTRAL AMERICA

CITY           SKY/WX    TMP DP  RH WIND       PRES   REMARKS
MANAGUA          N/A     82  75  78 SE12      29.86S

CARIBBEAN

CITY           SKY/WX    TMP DP  RH WIND       PRES   REMARKS
ARUBA          PTCLDY    81  75  83 E15       29.83S
CURACAO        MOCLDY    81  75  83 E15       29.86S
KINGSTON       PTCLDY    82  79  89 N6        29.89F HX  93
NASSAU         PTCLDY    72  68  88 CALM      29.92F
SAN JUAN       PTCLDY    81  72  74 CALM      29.93F
SANTO DOMINGO  PTCLDY    75  72  88 CALM      29.89F
ST. CROIX      PTCLDY    81  72  74 SE6       29.95F
ST. MAARTEN    PTCLDY    79  73  83 SE8       29.92F
ST. THOMAS     CLOUDY    81  75  83 S7        29.93F

$$




USA.gov is the U.S. government's official web portal to all federal, state and local government web resources and services.